User: anonymous   Login
Location: Zilina
(0.0000°N, 18.7333°E)
Time: 22:08:04
(UTC+02:00)
Language:

Cosmos 2298 Rocket - Orbit

View from above orbital plane
View from above orbital plane
View from above satellite
View from above satellite

Ground track
Ground track

The orbit data is extracted from the following two-line orbital elements,

1 23432U 94083B   20215.81146824 -.00000023 +00000-0 +10085-5 0  9997
2 23432 074.0334 008.4075 0006245 296.0080 166.8661 14.33539204339837
Epoch (UTC): 02 August 2020 19:28:30
Eccentricity: 0.0006245
inclination: 74.0334°
perigee height: 775 km
apogee height: 784 km
right ascension of ascending node: 8.4075°
argument of perigee: 296.0080°
revolutions per day: 14.33539204
mean anomaly at epoch: 166.8661°
orbit number at epoch: 33983

The dashed part of the orbit path shows where the satellite is in the earth's shadow,  

DLR